| time (UTC) | temp F | wind direction | speed knots | gust knots | rain 1hr in | rain 24hr in | rain mn in | humidity % | barometer mb |
| 20260508030100 | 54 | 0 | 0.0 | 0.0 | 0.00 | 0.00 | 0.00 | 93 | 1012.0 |
| 20260508025537 | 54 | 0 | 0.0 | 0.0 | 0.00 | 0.00 | 0.00 | 93 | 1011.9 |
| 20260508025037 | 54 | 0 | 0.0 | 0.0 | 0.00 | 0.00 | 0.00 | 93 | 1011.8 |
| 20260508024608 | 54 | 0 | 0.0 | 0.0 | 0.00 | 0.00 | 0.00 | 93 | 1011.8 |
| 20260508024039 | 54 | 0 | 0.0 | 0.0 | 0.00 | 0.00 | 0.00 | 93 | 1011.8 |
| 20260508023537 | 54 | 0 | 0.0 | 0.0 | 0.00 | 0.00 | 0.00 | 93 | 1011.8 |
| 20260508023045 | 54 | 0 | 0.0 | 0.0 | 0.00 | 0.00 | 0.00 | 93 | 1011.6 |
| 20260508022537 | 54 | 0 | 0.0 | 0.0 | 0.00 | 0.00 | 0.00 | 93 | 1011.6 |
| 20260508022036 | 54 | 0 | 0.0 | 0.0 | 0.00 | 0.00 | 0.00 | 93 | 1011.6 |
| 20260508021543 | 54 | 0 | 0.0 | 0.0 | 0.00 | 0.00 | 0.00 | 93 | 1011.8 |
| 20260508021035 | 54 | 0 | 0.0 | 0.0 | 0.00 | 0.00 | 0.00 | 93 | 1011.6 |
| 20260508020536 | 54 | 0 | 0.0 | 0.0 | 0.00 | 0.00 | 0.00 | 93 | 1011.6 |
| 20260508020100 | 54 | 0 | 0.0 | 0.0 | 0.00 | 0.00 | 0.00 | 93 | 1011.6 |
| 20260508015536 | 54 | 0 | 0.0 | 0.0 | 0.00 | 0.00 | 0.00 | 93 | 1011.6 |
| 20260508015036 | 54 | 0 | 0.0 | 0.0 | 0.00 | 0.00 | 0.00 | 93 | 1011.5 |
| 20260508014545 | 54 | 0 | 0.0 | 0.0 | 0.00 | 0.00 | 0.00 | 92 | 1011.4 |
| 20260508014035 | 55 | 0 | 0.0 | 0.0 | 0.00 | 0.00 | 0.00 | 92 | 1011.3 |
| 20260508013536 | 55 | 0 | 0.0 | 0.0 | 0.00 | 0.00 | 0.00 | 92 | 1011.0 |
| 20260508013054 | 55 | 0 | 0.0 | 0.0 | 0.00 | 0.00 | 0.00 | 93 | 1010.8 |
| 20260508012536 | 55 | 0 | 0.0 | 0.0 | 0.00 | 0.00 | 0.00 | 92 | 1010.8 |
| 20260508012036 | 55 | 0 | 0.0 | 0.0 | 0.00 | 0.00 | 0.00 | 93 | 1010.7 |
| 20260508011546 | 55 | 0 | 0.0 | 0.0 | 0.00 | 0.00 | 0.00 | 93 | 1010.9 |
| 20260508011038 | 55 | 0 | 0.0 | 0.0 | 0.00 | 0.00 | 0.00 | 93 | 1011.0 |
| 20260508010535 | 55 | 0 | 0.0 | 0.0 | 0.00 | 0.00 | 0.00 | 93 | 1011.2 |
| 20260508010041 | 55 | 0 | 0.0 | 0.0 | 0.00 | 0.00 | 0.00 | 93 | 1011.2 |
| 20260508005535 | 55 | 0 | 0.0 | 0.0 | 0.00 | 0.00 | 0.00 | 93 | 1011.0 |
| 20260508005036 | 55 | 0 | 0.0 | 0.0 | 0.00 | 0.00 | 0.00 | 93 | 1010.8 |
| 20260508004542 | 55 | 0 | 0.0 | 0.0 | 0.00 | 0.00 | 0.00 | 93 | 1010.7 |
| 20260508004036 | 55 | 0 | 0.0 | 0.0 | 0.00 | 0.00 | 0.00 | 93 | 1010.6 |
| 20260508003536 | 55 | 0 | 0.0 | 0.0 | 0.00 | 0.00 | 0.00 | 93 | 1010.5 |
| 20260508003044 | 55 | 0 | 0.0 | 0.0 | 0.00 | 0.00 | 0.00 | 93 | 1010.3 |
| 20260508002535 | 55 | 0 | 0.0 | 0.0 | 0.00 | 0.00 | 0.00 | 93 | 1010.2 |
| 20260508002035 | 55 | 0 | 0.0 | 0.0 | 0.00 | 0.00 | 0.00 | 93 | 1010.4 |
| 20260508001552 | 55 | 0 | 0.0 | 0.0 | 0.00 | 0.00 | 0.00 | 93 | 1010.6 |
| 20260508001036 | 55 | 0 | 0.0 | 0.0 | 0.00 | 0.00 | 0.00 | 93 | 1010.4 |
| 20260508000536 | 55 | 0 | 0.0 | 0.0 | 0.00 | 0.00 | 0.00 | 93 | 1010.3 |
| 20260508000044 | 55 | 0 | 0.0 | 0.0 | 0.00 | 0.00 | 0.00 | 93 | 1010.2 |
| 20260507235537 | 55 | 0 | 0.0 | 0.0 | 0.00 | 0.00 | 0.00 | 93 | 1010.0 |
| 20260507235035 | 55 | 0 | 0.0 | 0.0 | 0.00 | 0.00 | 0.00 | 93 | 1010.0 |
| 20260507234545 | 55 | 0 | 0.0 | 0.0 | 0.00 | 0.00 | 0.00 | 93 | 1009.9 |
| 20260507234036 | 55 | 0 | 0.0 | 0.0 | 0.00 | 0.00 | 0.00 | 93 | 1009.7 |
| 20260507233535 | 55 | 0 | 0.0 | 0.0 | 0.00 | 0.00 | 0.00 | 93 | 1009.8 |
| 20260507233046 | 55 | 0 | 0.0 | 0.0 | 0.00 | 0.00 | 0.00 | 93 | 1009.7 |
| 20260507232535 | 55 | 0 | 0.0 | 0.0 | 0.00 | 0.00 | 0.00 | 93 | 1009.4 |
| 20260507232036 | 55 | 0 | 0.0 | 0.0 | 0.00 | 0.00 | 0.00 | 93 | 1009.2 |
| 20260507231545 | 55 | 0 | 0.0 | 0.0 | 0.00 | 0.00 | 0.00 | 93 | 1009.3 |
| 20260507231036 | 55 | 0 | 0.0 | 1.7 | 0.00 | 0.00 | 0.00 | 93 | 1009.4 |
| 20260507230536 | 55 | 0 | 0.0 | 1.7 | 0.00 | 0.00 | 0.00 | 93 | 1009.4 |
| 20260507230043 | 55 | 0 | 0.0 | 3.5 | 0.00 | 0.00 | 0.00 | 93 | 1009.5 |
| 20260507225539 | 55 | 0 | 0.0 | 3.5 | 0.00 | 0.00 | 0.00 | 93 | 1009.3 |
| 20260507225036 | 55 | 0 | 0.0 | 3.5 | 0.00 | 0.00 | 0.00 | 93 | 1009.3 |
| 20260507224551 | 55 | 0 | 0.0 | 0.0 | 0.00 | 0.00 | 0.00 | 93 | 1009.3 |
| 20260507224037 | 55 | 0 | 0.0 | 1.7 | 0.00 | 0.00 | 0.00 | 93 | 1009.3 |
| 20260507223537 | 55 | 0 | 0.0 | 1.7 | 0.00 | 0.00 | 0.00 | 93 | 1009.3 |
| 20260507223051 | 55 | 0 | 0.0 | 3.5 | 0.00 | 0.00 | 0.00 | 93 | 1009.1 |
| 20260507222538 | 55 | 0 | 0.0 | 3.5 | 0.00 | 0.00 | 0.00 | 93 | 1009.1 |
| 20260507222035 | 55 | 309 | 0.0 | 2.6 | 0.00 | 0.00 | 0.00 | 93 | 1009.1 |
| 20260507221548 | 55 | 0 | 0.0 | 1.7 | 0.00 | 0.00 | 0.00 | 93 | 1009.3 |
| 20260507221036 | 55 | 0 | 0.0 | 1.7 | 0.00 | 0.00 | 0.00 | 93 | 1009.3 |
| 20260507220534 | 55 | 0 | 0.0 | 1.7 | 0.00 | 0.00 | 0.00 | 93 | 1009.3 |
| 20260507220052 | 56 | 0 | 0.0 | 0.0 | 0.00 | 0.00 | 0.00 | 93 | 1009.3 |
| 20260507215535 | 56 | 0 | 0.0 | 0.0 | 0.00 | 0.00 | 0.00 | 93 | 1009.5 |
| 20260507215034 | 56 | 0 | 0.0 | 1.7 | 0.00 | 0.00 | 0.00 | 93 | 1009.4 |
| 20260507214548 | 55 | 0 | 0.0 | 1.7 | 0.00 | 0.00 | 0.00 | 93 | 1009.1 |
| 20260507214037 | 56 | 0 | 0.0 | 0.0 | 0.00 | 0.00 | 0.00 | 93 | 1009.1 |
| 20260507213536 | 56 | 0 | 0.0 | 0.0 | 0.00 | 0.00 | 0.00 | 93 | 1009.1 |
| 20260507213054 | 55 | 0 | 0.0 | 1.7 | 0.00 | 0.00 | 0.00 | 93 | 1009.1 |
| 20260507212534 | 56 | 0 | 0.0 | 1.7 | 0.00 | 0.00 | 0.00 | 93 | 1009.3 |
| 20260507212036 | 56 | 0 | 0.0 | 1.7 | 0.00 | 0.00 | 0.00 | 93 | 1009.0 |
| 20260507211550 | 55 | 0 | 0.0 | 0.0 | 0.00 | 0.00 | 0.00 | 93 | 1009.1 |
| 20260507211035 | 55 | 0 | 0.0 | 0.0 | 0.00 | 0.00 | 0.00 | 93 | 1009.0 |
| 20260507210535 | 55 | 0 | 0.0 | 2.6 | 0.00 | 0.00 | 0.00 | 93 | 1009.0 |
| 20260507210046 | 55 | 0 | 0.0 | 2.6 | 0.00 | 0.00 | 0.00 | 93 | 1009.0 |
| 20260507205535 | 55 | 0 | 0.0 | 1.7 | 0.00 | 0.00 | 0.00 | 93 | 1008.9 |
| 20260507205035 | 56 | 0 | 0.0 | 1.7 | 0.00 | 0.00 | 0.00 | 93 | 1008.8 |
| 20260507204543 | 56 | 0 | 0.0 | 2.6 | 0.00 | 0.00 | 0.00 | 93 | 1008.7 |
| 20260507204035 | 56 | 0 | 0.0 | 2.6 | 0.00 | 0.00 | 0.00 | 93 | 1008.7 |
| 20260507203535 | 56 | 339 | 0.0 | 3.5 | 0.00 | 0.00 | 0.00 | 93 | 1008.9 |
| 20260507203044 | 56 | 0 | 0.0 | 3.5 | 0.00 | 0.00 | 0.00 | 93 | 1008.8 |
| 20260507202539 | 56 | 331 | 0.0 | 3.5 | 0.00 | 0.00 | 0.00 | 93 | 1008.7 |
| 20260507202035 | 56 | 0 | 0.0 | 2.6 | 0.00 | 0.00 | 0.00 | 93 | 1008.7 |
| 20260507201547 | 56 | 0 | 0.0 | 4.3 | 0.00 | 0.00 | 0.00 | 93 | 1008.7 |
| 20260507201036 | 57 | 304 | 0.0 | 6.1 | 0.00 | 0.00 | 0.00 | 93 | 1008.6 |
| 20260507200536 | 57 | 90 | 0.0 | 6.1 | 0.00 | 0.00 | 0.00 | 93 | 1008.5 |
| 20260507200044 | 57 | 0 | 0.0 | 1.7 | 0.00 | 0.00 | 0.00 | 93 | 1008.7 |
| 20260507195535 | 57 | 0 | 0.0 | 0.9 | 0.00 | 0.00 | 0.00 | 94 | 1008.7 |
| 20260507195035 | 58 | 0 | 0.0 | 0.9 | 0.00 | 0.00 | 0.00 | 94 | 1008.4 |
| 20260507194541 | 58 | 0 | 0.0 | 0.0 | 0.00 | 0.00 | 0.00 | 94 | 1008.3 |
| 20260507194035 | 58 | 0 | 0.0 | 0.0 | 0.00 | 0.00 | 0.00 | 94 | 1008.3 |
| 20260507193535 | 57 | 0 | 0.0 | 0.9 | 0.00 | 0.00 | 0.00 | 94 | 1008.3 |
| 20260507193045 | 57 | 0 | 0.0 | 0.9 | 0.00 | 0.00 | 0.00 | 94 | 1008.4 |
| 20260507192534 | 57 | 0 | 0.0 | 0.9 | 0.00 | 0.00 | 0.00 | 94 | 1008.6 |
| 20260507192036 | 57 | 0 | 0.0 | 0.9 | 0.00 | 0.00 | 0.00 | 93 | 1008.7 |
| 20260507191544 | 57 | 0 | 0.0 | 3.5 | 0.00 | 0.00 | 0.00 | 93 | 1008.7 |
| 20260507191035 | 57 | 0 | 0.0 | 3.5 | 0.00 | 0.00 | 0.00 | 93 | 1008.8 |
| 20260507190535 | 57 | 311 | 0.0 | 0.9 | 0.00 | 0.00 | 0.00 | 93 | 1008.9 |
| 20260507190043 | 58 | 0 | 0.0 | 1.7 | 0.00 | 0.00 | 0.00 | 93 | 1008.8 |
| 20260507185535 | 58 | 0 | 0.0 | 8.7 | 0.00 | 0.00 | 0.00 | 93 | 1008.6 |
| 20260507185034 | 58 | 0 | 0.0 | 8.7 | 0.00 | 0.00 | 0.00 | 93 | 1008.1 |
| 20260507184542 | 58 | 0 | 0.9 | 8.7 | 0.00 | 0.00 | 0.00 | 93 | 1008.1 |
| 20260507184035 | 58 | 0 | 0.0 | 2.6 | 0.00 | 0.00 | 0.00 | 93 | 1008.5 |
| 20260507183534 | 58 | 0 | 0.0 | 2.6 | 0.00 | 0.00 | 0.00 | 93 | 1008.6 |
| 20260507183051 | 58 | 0 | 0.0 | 3.5 | 0.00 | 0.00 | 0.00 | 93 | 1008.7 |
| 20260507182536 | 59 | 0 | 0.0 | 3.5 | 0.00 | 0.00 | 0.00 | 93 | 1008.5 |
| 20260507182035 | 59 | 309 | 0.0 | 2.6 | 0.00 | 0.00 | 0.00 | 93 | 1007.9 |
| 20260507181548 | 59 | 0 | 0.0 | 2.6 | 0.00 | 0.00 | 0.00 | 93 | 1007.9 |
| 20260507181035 | 59 | 0 | 0.0 | 2.6 | 0.00 | 0.00 | 0.00 | 93 | 1007.8 |
| 20260507180537 | 59 | 0 | 0.0 | 6.1 | 0.00 | 0.00 | 0.00 | 93 | 1007.9 |
| 20260507180051 | 60 | 0 | 0.0 | 6.1 | 0.00 | 0.00 | 0.00 | 92 | 1007.8 |
| 20260507175535 | 60 | 19 | 0.0 | 7.0 | 0.00 | 0.00 | 0.00 | 92 | 1007.9 |
| 20260507175035 | 60 | 0 | 0.0 | 7.0 | 0.00 | 0.00 | 0.00 | 92 | 1008.1 |
| 20260507174549 | 61 | 0 | 0.0 | 7.0 | 0.00 | 0.00 | 0.00 | 91 | 1008.6 |
| 20260507174034 | 62 | 277 | 0.0 | 2.6 | 0.00 | 0.00 | 0.00 | 92 | 1008.8 |
| 20260507173538 | 62 | 0 | 0.0 | 3.5 | 0.00 | 0.00 | 0.00 | 91 | 1008.7 |
| 20260507173056 | 63 | 290 | 0.0 | 7.8 | 0.00 | 0.00 | 0.00 | 91 | 1008.3 |
| 20260507172535 | 64 | 331 | 0.0 | 7.8 | 0.00 | 0.00 | 0.00 | 90 | 1007.5 |
| 20260507172037 | 66 | 13 | 0.0 | 7.8 | 0.00 | 0.00 | 0.00 | 91 | 1007.5 |
| 20260507171541 | 67 | 98 | 0.0 | 0.9 | 0.00 | 0.00 | 0.00 | 95 | 1007.2 |
| 20260507171035 | 67 | 0 | 0.0 | 0.9 | 0.00 | 0.00 | 0.00 | 95 | 1006.9 |
| 20260507170537 | 67 | 0 | 0.0 | 0.0 | 0.00 | 0.00 | 0.00 | 95 | 1006.7 |
| 20260507170052 | 68 | 0 | 0.0 | 0.0 | 0.00 | 0.00 | 0.00 | 95 | 1006.8 |
| 20260507165536 | 68 | 0 | 0.0 | 3.5 | 0.00 | 0.00 | 0.00 | 95 | 1006.8 |
| 20260507165039 | 68 | 0 | 0.0 | 3.5 | 0.00 | 0.00 | 0.00 | 95 | 1006.8 |
| 20260507164547 | 69 | 0 | 0.0 | 3.5 | 0.00 | 0.00 | 0.00 | 95 | 1007.0 |
| 20260507164035 | 69 | 268 | 0.0 | 0.0 | 0.00 | 0.00 | 0.00 | 95 | 1007.2 |
| 20260507163535 | 69 | 0 | 0.0 | 2.6 | 0.00 | 0.00 | 0.00 | 96 | 1007.5 |
| 20260507163045 | 69 | 0 | 0.0 | 2.6 | 0.00 | 0.00 | 0.00 | 96 | 1007.9 |
| 20260507162535 | 69 | 268 | 0.0 | 3.5 | 0.00 | 0.00 | 0.00 | 96 | 1008.0 |
| 20260507162035 | 69 | 269 | 0.0 | 3.5 | 0.00 | 0.00 | 0.00 | 96 | 1008.2 |
| 20260507161551 | 69 | 263 | 0.0 | 1.7 | 0.00 | 0.00 | 0.00 | 96 | 1008.1 |
| 20260507161034 | 69 | 0 | 0.0 | 1.7 | 0.00 | 0.00 | 0.00 | 96 | 1008.2 |
| 20260507160535 | 68 | 0 | 0.0 | 2.6 | 0.00 | 0.00 | 0.00 | 96 | 1008.5 |
| 20260507160044 | 68 | 263 | 0.0 | 2.6 | 0.00 | 0.00 | 0.00 | 96 | 1008.5 |
| 20260507155534 | 68 | 263 | 0.0 | 1.7 | 0.00 | 0.00 | 0.00 | 96 | 1008.5 |
| 20260507155038 | 68 | 0 | 0.0 | 0.9 | 0.00 | 0.00 | 0.00 | 96 | 1008.5 |
| 20260507154543 | 68 | 0 | 0.0 | 1.7 | 0.00 | 0.00 | 0.00 | 96 | 1008.4 |
| 20260507154036 | 68 | 0 | 0.0 | 1.7 | 0.00 | 0.00 | 0.00 | 96 | 1008.3 |
| 20260507153534 | 68 | 0 | 0.0 | 0.0 | 0.00 | 0.00 | 0.00 | 96 | 1007.9 |
| 20260507153101 | 68 | 0 | 0.0 | 1.7 | 0.00 | 0.00 | 0.00 | 96 | 1007.8 |
| 20260507152534 | 68 | 0 | 0.0 | 1.7 | 0.00 | 0.00 | 0.00 | 96 | 1008.1 |
| 20260507152034 | 68 | 277 | 0.0 | 1.7 | 0.00 | 0.00 | 0.00 | 96 | 1008.3 |
| 20260507151544 | 68 | 0 | 0.0 | 2.6 | 0.00 | 0.00 | 0.00 | 96 | 1008.1 |
| 20260507151034 | 68 | 0 | 0.9 | 2.6 | 0.00 | 0.00 | 0.00 | 96 | 1008.3 |
| 20260507150534 | 68 | 0 | 0.0 | 2.6 | 0.00 | 0.00 | 0.00 | 96 | 1008.3 |
| 20260507150045 | 68 | 0 | 0.0 | 1.7 | 0.00 | 0.00 | 0.00 | 96 | 1008.3 |
| 20260507145535 | 67 | 0 | 0.0 | 2.6 | 0.00 | 0.00 | 0.00 | 96 | 1008.4 |
| 20260507145130 | 67 | 0 | 0.9 | 2.6 | 0.00 | 0.00 | 0.00 | 96 | 1008.5 |
| 20260507144549 | 67 | 0 | 0.0 | 2.6 | 0.00 | 0.00 | 0.00 | 96 | 1008.5 |
| 20260507144035 | 67 | 0 | 0.9 | 2.6 | 0.00 | 0.00 | 0.00 | 96 | 1008.6 |
| 20260507143534 | 68 | 0 | 0.0 | 2.6 | 0.00 | 0.00 | 0.00 | 96 | 1008.6 |
| 20260507143056 | 67 | 0 | 0.0 | 3.5 | 0.00 | 0.00 | 0.00 | 96 | 1008.6 |
| 20260507142535 | 67 | 269 | 0.0 | 3.5 | 0.00 | 0.00 | 0.00 | 96 | 1008.6 |
| 20260507142034 | 67 | 269 | 0.9 | 3.5 | 0.00 | 0.00 | 0.00 | 96 | 1008.5 |
| 20260507141549 | 67 | 0 | 0.9 | 3.5 | 0.00 | 0.00 | 0.00 | 96 | 1008.4 |
| 20260507141035 | 67 | 0 | 0.0 | 5.2 | 0.00 | 0.00 | 0.00 | 96 | 1008.4 |
| 20260507140536 | 68 | 0 | 0.0 | 5.2 | 0.00 | 0.00 | 0.00 | 96 | 1008.4 |
| 20260507140056 | 68 | 265 | 0.0 | 3.5 | 0.00 | 0.00 | 0.00 | 96 | 1008.6 |
| 20260507135534 | 67 | 0 | 0.0 | 2.6 | 0.00 | 0.00 | 0.00 | 96 | 1008.7 |
| 20260507135035 | 67 | 0 | 0.0 | 3.5 | 0.00 | 0.00 | 0.00 | 96 | 1008.8 |
| 20260507134551 | 67 | 260 | 0.0 | 3.5 | 0.00 | 0.00 | 0.00 | 96 | 1009.1 |
| 20260507134034 | 67 | 269 | 0.0 | 2.6 | 0.00 | 0.00 | 0.00 | 96 | 1009.1 |
| 20260507133535 | 67 | 269 | 0.9 | 2.6 | 0.00 | 0.00 | 0.00 | 96 | 1009.1 |
| 20260507133050 | 67 | 0 | 0.0 | 2.6 | 0.00 | 0.00 | 0.00 | 96 | 1008.9 |
| 20260507132535 | 67 | 0 | 0.0 | 1.7 | 0.00 | 0.00 | 0.00 | 96 | 1008.9 |
| 20260507132034 | 67 | 269 | 0.0 | 1.7 | 0.00 | 0.00 | 0.00 | 96 | 1009.0 |
| 20260507131551 | 67 | 0 | 0.0 | 0.9 | 0.00 | 0.00 | 0.00 | 96 | 1008.9 |
| 20260507131035 | 67 | 0 | 0.0 | 1.7 | 0.00 | 0.00 | 0.00 | 96 | 1009.0 |
| 20260507130534 | 67 | 0 | 0.0 | 1.7 | 0.00 | 0.00 | 0.00 | 96 | 1009.0 |
| 20260507125534 | 67 | 0 | 0.0 | 2.6 | 0.00 | 0.00 | 0.00 | 96 | 1009.1 |
| 20260507125035 | 67 | 0 | 0.0 | 2.6 | 0.00 | 0.00 | 0.00 | 96 | 1009.1 |
| 20260507124555 | 67 | 269 | 0.0 | 1.7 | 0.00 | 0.00 | 0.00 | 96 | 1009.1 |
| 20260507124035 | 67 | 0 | 0.0 | 1.7 | 0.00 | 0.00 | 0.00 | 96 | 1009.0 |
| 20260507123535 | 67 | 0 | 0.0 | 1.7 | 0.00 | 0.00 | 0.00 | 96 | 1009.2 |
| 20260507123044 | 66 | 269 | 0.0 | 1.7 | 0.00 | 0.00 | 0.00 | 96 | 1009.1 |
| 20260507122535 | 66 | 0 | 0.0 | 0.9 | 0.00 | 0.00 | 0.00 | 96 | 1009.1 |
| 20260507122034 | 66 | 0 | 0.0 | 1.7 | 0.00 | 0.00 | 0.00 | 96 | 1008.9 |
| 20260507121549 | 66 | 0 | 0.0 | 1.7 | 0.00 | 0.00 | 0.00 | 96 | 1008.7 |
| 20260507121035 | 66 | 0 | 0.0 | 1.7 | 0.00 | 0.00 | 0.00 | 96 | 1009.0 |
| 20260507120534 | 66 | 269 | 0.0 | 0.0 | 0.00 | 0.00 | 0.00 | 96 | 1009.0 |
| 20260507120044 | 66 | 0 | 0.0 | 0.0 | 0.00 | 0.00 | 0.00 | 96 | 1009.1 |
| 20260507115535 | 66 | 0 | 0.0 | 0.0 | 0.00 | 0.00 | 0.00 | 96 | 1009.2 |
| 20260507115034 | 66 | 0 | 0.0 | 0.9 | 0.00 | 0.00 | 0.00 | 96 | 1009.1 |
| 20260507114550 | 66 | 0 | 0.0 | 2.6 | 0.00 | 0.00 | 0.00 | 96 | 1009.2 |
| 20260507114035 | 66 | 0 | 0.9 | 2.6 | 0.00 | 0.00 | 0.00 | 96 | 1009.5 |
| 20260507113537 | 66 | 0 | 0.0 | 1.7 | 0.00 | 0.00 | 0.00 | 96 | 1009.6 |
| 20260507113046 | 66 | 0 | 0.0 | 2.6 | 0.00 | 0.00 | 0.00 | 96 | 1009.4 |
| 20260507112537 | 66 | 0 | 0.0 | 2.6 | 0.00 | 0.00 | 0.00 | 96 | 1009.5 |
| 20260507112037 | 66 | 0 | 0.9 | 2.6 | 0.00 | 0.00 | 0.00 | 96 | 1009.4 |
| 20260507111547 | 66 | 0 | 0.0 | 2.6 | 0.00 | 0.00 | 0.00 | 96 | 1009.5 |
| 20260507111034 | 66 | 0 | 0.9 | 2.6 | 0.00 | 0.00 | 0.00 | 96 | 1009.6 |
| 20260507110534 | 66 | 0 | 0.0 | 2.6 | 0.00 | 0.00 | 0.00 | 96 | 1009.5 |
| 20260507110055 | 66 | 0 | 0.9 | 2.6 | 0.00 | 0.00 | 0.00 | 96 | 1009.5 |
| 20260507105533 | 66 | 0 | 0.0 | 3.5 | 0.00 | 0.00 | 0.00 | 96 | 1009.3 |
| 20260507105035 | 66 | 0 | 0.0 | 3.5 | 0.00 | 0.00 | 0.00 | 96 | 1009.2 |
| 20260507104550 | 66 | 259 | 0.0 | 3.5 | 0.00 | 0.00 | 0.00 | 96 | 1009.1 |
| 20260507104034 | 66 | 0 | 0.0 | 3.5 | 0.00 | 0.00 | 0.00 | 96 | 1009.1 |
| 20260507103536 | 65 | 0 | 0.0 | 1.7 | 0.00 | 0.00 | 0.00 | 96 | 1009.0 |
| 20260507103111 | 65 | 0 | 0.0 | 2.6 | 0.00 | 0.00 | 0.00 | 96 | 1009.3 |
| 20260507102534 | 65 | 0 | 0.0 | 2.6 | 0.00 | 0.00 | 0.00 | 96 | 1009.1 |
| 20260507102035 | 65 | 0 | 0.0 | 0.0 | 0.00 | 0.00 | 0.00 | 95 | 1008.9 |
| 20260507101542 | 65 | 0 | 0.0 | 0.0 | 0.00 | 0.00 | 0.00 | 95 | 1009.0 |
| 20260507101034 | 65 | 0 | 0.0 | 0.0 | 0.00 | 0.00 | 0.00 | 95 | 1009.1 |
| 20260507100534 | 64 | 0 | 0.0 | 0.0 | 0.00 | 0.00 | 0.00 | 95 | 1009.0 |
| 20260507100057 | 64 | 0 | 0.0 | 0.0 | 0.00 | 0.00 | 0.00 | 95 | 1009.0 |
| 20260507095534 | 65 | 0 | 0.0 | 0.0 | 0.00 | 0.00 | 0.00 | 95 | 1009.0 |
| 20260507095034 | 64 | 0 | 0.0 | 0.0 | 0.00 | 0.00 | 0.00 | 95 | 1009.0 |
| 20260507094547 | 64 | 0 | 0.0 | 0.0 | 0.00 | 0.00 | 0.00 | 95 | 1009.0 |
| 20260507094034 | 64 | 0 | 0.0 | 0.0 | 0.00 | 0.00 | 0.00 | 95 | 1009.0 |
| 20260507093536 | 64 | 0 | 0.0 | 0.0 | 0.00 | 0.00 | 0.00 | 95 | 1009.2 |
| 20260507093046 | 64 | 0 | 0.0 | 0.0 | 0.00 | 0.00 | 0.00 | 95 | 1009.2 |
| 20260507092538 | 64 | 0 | 0.0 | 0.0 | 0.00 | 0.00 | 0.00 | 94 | 1009.0 |
| 20260507092033 | 64 | 0 | 0.0 | 0.0 | 0.00 | 0.00 | 0.00 | 94 | 1009.1 |
| 20260507091547 | 64 | 0 | 0.0 | 0.0 | 0.00 | 0.00 | 0.00 | 94 | 1009.1 |
| 20260507091035 | 64 | 0 | 0.0 | 0.0 | 0.00 | 0.00 | 0.00 | 94 | 1009.1 |
| 20260507090537 | 64 | 0 | 0.0 | 0.0 | 0.00 | 0.00 | 0.00 | 94 | 1009.1 |
| 20260507090046 | 64 | 0 | 0.0 | 2.6 | 0.00 | 0.00 | 0.00 | 94 | 1009.3 |
| 20260507085534 | 65 | 0 | 0.0 | 2.6 | 0.00 | 0.00 | 0.00 | 94 | 1009.2 |
| 20260507085035 | 65 | 0 | 0.0 | 0.0 | 0.00 | 0.00 | 0.00 | 94 | 1009.2 |
| 20260507084546 | 65 | 0 | 0.0 | 0.0 | 0.00 | 0.00 | 0.00 | 94 | 1009.1 |
| 20260507084033 | 65 | 0 | 0.0 | 0.0 | 0.00 | 0.00 | 0.00 | 94 | 1009.3 |
| 20260507083535 | 65 | 0 | 0.0 | 0.0 | 0.00 | 0.00 | 0.00 | 94 | 1009.5 |
| 20260507083045 | 65 | 0 | 0.0 | 0.0 | 0.00 | 0.00 | 0.00 | 94 | 1009.6 |
| 20260507082537 | 65 | 0 | 0.0 | 0.0 | 0.00 | 0.00 | 0.00 | 94 | 1009.8 |
| 20260507082034 | 65 | 0 | 0.0 | 0.9 | 0.00 | 0.00 | 0.00 | 94 | 1010.0 |
| 20260507081543 | 65 | 0 | 0.0 | 0.9 | 0.00 | 0.00 | 0.00 | 94 | 1010.1 |
| 20260507081035 | 65 | 0 | 0.0 | 0.0 | 0.00 | 0.00 | 0.00 | 94 | 1010.1 |
| 20260507080534 | 65 | 0 | 0.0 | 0.0 | 0.00 | 0.00 | 0.00 | 94 | 1009.8 |
| 20260507080055 | 65 | 0 | 0.0 | 0.0 | 0.00 | 0.00 | 0.00 | 94 | 1009.3 |
| 20260507075534 | 65 | 0 | 0.0 | 0.0 | 0.00 | 0.00 | 0.00 | 94 | 1009.4 |
| 20260507075034 | 65 | 0 | 0.0 | 0.0 | 0.00 | 0.00 | 0.00 | 94 | 1009.4 |
| 20260507074543 | 65 | 0 | 0.0 | 0.0 | 0.00 | 0.00 | 0.00 | 94 | 1009.5 |
| 20260507074033 | 65 | 0 | 0.0 | 0.0 | 0.00 | 0.00 | 0.00 | 93 | 1010.0 |
| 20260507073536 | 65 | 0 | 0.0 | 0.0 | 0.00 | 0.00 | 0.00 | 93 | 1010.2 |
| 20260507073045 | 65 | 0 | 0.0 | 0.0 | 0.00 | 0.00 | 0.00 | 93 | 1010.5 |
| 20260507072534 | 65 | 0 | 0.0 | 0.0 | 0.00 | 0.00 | 0.00 | 93 | 1010.2 |
| 20260507072033 | 65 | 0 | 0.0 | 0.0 | 0.00 | 0.00 | 0.00 | 93 | 1010.4 |
| 20260507071548 | 65 | 0 | 0.0 | 0.0 | 0.00 | 0.00 | 0.00 | 93 | 1010.2 |
| 20260507071034 | 65 | 0 | 0.0 | 0.0 | 0.00 | 0.00 | 0.00 | 93 | 1010.1 |
| 20260507070534 | 65 | 0 | 0.0 | 0.0 | 0.00 | 0.00 | 0.00 | 93 | 1010.3 |
| 20260507070101 | 65 | 0 | 0.0 | 0.0 | 0.00 | 0.00 | 0.00 | 93 | 1010.1 |
| 20260507065533 | 65 | 0 | 0.0 | 0.0 | 0.00 | 0.00 | 0.00 | 93 | 1009.8 |
| 20260507065033 | 65 | 0 | 0.0 | 0.0 | 0.00 | 0.00 | 0.00 | 93 | 1010.2 |
| 20260507064551 | 65 | 0 | 0.0 | 0.0 | 0.00 | 0.00 | 0.00 | 93 | 1010.4 |
| 20260507064034 | 65 | 0 | 0.0 | 0.0 | 0.00 | 0.00 | 0.00 | 93 | 1010.5 |
| 20260507063533 | 65 | 0 | 0.0 | 0.0 | 0.00 | 0.00 | 0.00 | 93 | 1010.9 |
| 20260507063041 | 65 | 0 | 0.0 | 0.0 | 0.00 | 0.00 | 0.00 | 93 | 1010.8 |
| 20260507062533 | 65 | 0 | 0.0 | 0.0 | 0.00 | 0.00 | 0.00 | 93 | 1010.9 |
| 20260507062033 | 65 | 0 | 0.0 | 0.0 | 0.00 | 0.00 | 0.00 | 93 | 1010.8 |
| 20260507061547 | 65 | 0 | 0.0 | 0.0 | 0.00 | 0.00 | 0.00 | 93 | 1010.6 |
| 20260507061033 | 65 | 0 | 0.0 | 0.0 | 0.00 | 0.00 | 0.00 | 93 | 1010.7 |
| 20260507060534 | 65 | 0 | 0.0 | 0.0 | 0.00 | 0.00 | 0.00 | 92 | 1010.8 |
| 20260507060045 | 65 | 0 | 0.0 | 0.0 | 0.00 | 0.00 | 0.00 | 93 | 1011.2 |
| 20260507055534 | 66 | 0 | 0.0 | 0.0 | 0.00 | 0.00 | 0.00 | 93 | 1010.9 |
| 20260507055033 | 66 | 0 | 0.0 | 0.0 | 0.00 | 0.00 | 0.00 | 93 | 1011.1 |
| 20260507054605 | 66 | 0 | 0.0 | 0.9 | 0.00 | 0.00 | 0.00 | 92 | 1011.3 |
| 20260507054034 | 66 | 0 | 0.0 | 0.9 | 0.00 | 0.00 | 0.00 | 92 | 1011.4 |
| 20260507053536 | 66 | 0 | 0.0 | 0.0 | 0.00 | 0.00 | 0.00 | 92 | 1010.7 |
| 20260507053051 | 66 | 0 | 0.0 | 0.0 | 0.00 | 0.00 | 0.00 | 92 | 1010.2 |
| 20260507052533 | 66 | 0 | 0.0 | 0.0 | 0.00 | 0.00 | 0.00 | 92 | 1010.0 |
| 20260507052034 | 66 | 0 | 0.0 | 5.2 | 0.00 | 0.00 | 0.00 | 92 | 1010.0 |
| 20260507051550 | 66 | 0 | 0.0 | 5.2 | 0.00 | 0.00 | 0.00 | 92 | 1010.3 |
| 20260507051033 | 66 | 0 | 0.9 | 4.3 | 0.00 | 0.00 | 0.00 | 91 | 1010.6 |
| 20260507050535 | 66 | 0 | 0.0 | 3.5 | 0.00 | 0.00 | 0.00 | 91 | 1010.8 |
| 20260507050057 | 67 | 263 | 1.7 | 2.6 | 0.00 | 0.00 | 0.00 | 91 | 1011.1 |
| 20260507045534 | 67 | 0 | 0.0 | 5.2 | 0.00 | 0.00 | 0.00 | 91 | 1011.3 |
| 20260507045033 | 67 | 0 | 0.0 | 5.2 | 0.00 | 0.00 | 0.00 | 90 | 1011.8 |
| 20260507044554 | 67 | 267 | 0.9 | 7.0 | 0.00 | 0.00 | 0.00 | 90 | 1012.4 |
| 20260507044035 | 67 | 0 | 0.0 | 7.0 | 0.00 | 0.00 | 0.00 | 90 | 1012.5 |
| 20260507043534 | 68 | 275 | 1.7 | 7.8 | 0.00 | 0.00 | 0.00 | 89 | 1012.4 |
| 20260507043045 | 68 | 258 | 0.9 | 7.8 | 0.00 | 0.00 | 0.00 | 89 | 1012.5 |
| 20260507042533 | 68 | 277 | 0.9 | 5.2 | 0.00 | 0.00 | 0.00 | 88 | 1012.5 |
| 20260507042034 | 68 | 271 | 1.7 | 5.2 | 0.00 | 0.00 | 0.00 | 88 | 1012.6 |
| 20260507041559 | 68 | 265 | 0.9 | 5.2 | 0.00 | 0.00 | 0.00 | 88 | 1012.5 |
| 20260507041036 | 68 | 273 | 0.9 | 6.1 | 0.00 | 0.00 | 0.00 | 89 | 1012.4 |
| 20260507040534 | 67 | 269 | 1.7 | 6.1 | 0.00 | 0.00 | 0.00 | 90 | 1012.3 |
| 20260507040044 | 67 | 265 | 1.7 | 5.2 | 0.00 | 0.00 | 0.00 | 91 | 1012.1 |
| 20260507035533 | 67 | 266 | 0.0 | 0.0 | 0.00 | 0.00 | 0.00 | 92 | 1011.9 |
| 20260507035035 | 67 | 0 | 0.0 | 0.0 | 0.00 | 0.00 | 0.00 | 92 | 1011.6 |
| 20260507034546 | 67 | 0 | 0.0 | 0.0 | 0.00 | 0.00 | 0.00 | 91 | 1011.5 |
| 20260507034034 | 67 | 0 | 0.0 | 0.0 | 0.00 | 0.00 | 0.00 | 91 | 1011.2 |
| 20260507033534 | 67 | 0 | 0.0 | 0.0 | 0.00 | 0.00 | 0.00 | 91 | 1010.9 |
| 20260507033048 | 67 | 0 | 0.0 | 0.0 | 0.00 | 0.00 | 0.00 | 91 | 1010.9 |
| 20260507032537 | 67 | 0 | 0.0 | 2.6 | 0.00 | 0.00 | 0.00 | 91 | 1011.3 |
| 20260507032035 | 67 | 0 | 0.0 | 2.6 | 0.00 | 0.00 | 0.00 | 91 | 1011.7 |
| 20260507031546 | 67 | 266 | 0.0 | 2.6 | 0.00 | 0.00 | 0.00 | 92 | 1011.7 |
| 20260507031036 | 67 | 0 | 0.0 | 2.6 | 0.00 | 0.00 | 0.00 | 92 | 1011.6 |
| 20260507030534 | 67 | 0 | 0.0 | 0.0 | 0.00 | 0.00 | 0.00 | 93 | 1011.5 |